This is the latest recevied weather packets stored in our database for station/object DL1GHN-6. If no packets are shown the sender has not sent any weather packets the latest 10 day(s).
| Time | Temp. | Humidity | Pressure | Rain* | Wind** | Luminosity | Snow |
|---|---|---|---|---|---|---|---|
| 1777817721 | 25° C | 37% | 1012.7 hPa | 0 mm | - | 253 W/m² | - |
| 1777817422 | 25° C | 36% | 1012.6 hPa | 0 mm | - | 327 W/m² | - |
| 1777817122 | 25.56° C | 33% | 1012.7 hPa | 0 mm | - | 332 W/m² | - |
| 1777816821 | 25.56° C | 36% | 1012.6 hPa | 0 mm | - | 315 W/m² | - |
| 1777816522 | 25° C | 33% | 1012.6 hPa | 0 mm | - | 290 W/m² | - |
| 1777816220 | 25.56° C | 34% | 1012.6 hPa | 0 mm | - | 301 W/m² | - |
| 1777815922 | 25.56° C | 35% | 1012.7 hPa | 0 mm | - | 318 W/m² | - |
| 1777815621 | 25.56° C | 35% | 1012.8 hPa | 0 mm | - | 313 W/m² | - |
| 1777815321 | 25.56° C | 34% | 1012.8 hPa | 0 mm | - | 329 W/m² | - |
| 1777815022 | 25.56° C | 33% | 1012.8 hPa | 0 mm | - | 434 W/m² | - |
| 1777814722 | 26.11° C | 31% | 1013 hPa | 0 mm | - | 666 W/m² | - |
| 1777814422 | 26.67° C | 31% | 1013 hPa | 0 mm | - | 670 W/m² | - |
| 1777814122 | 26.11° C | 33% | 1013 hPa | 0 mm | - | 635 W/m² | - |
| 1777813821 | 26.11° C | 38% | 1013 hPa | 0 mm | - | 788 W/m² | - |
| 1777813522 | 26.11° C | 32% | 1013.1 hPa | 0 mm | - | 805 W/m² | - |
| 1777813221 | 26.11° C | 36% | 1013.1 hPa | 0 mm | - | 805 W/m² | - |
| 1777812921 | 26.11° C | 34% | 1013.2 hPa | 0 mm | - | 717 W/m² | - |
| 1777812621 | 25.56° C | 36% | 1013.1 hPa | 0 mm | - | 791 W/m² | - |
| 1777812321 | 25.56° C | 37% | 1013.2 hPa | 0 mm | - | 522 W/m² | - |
| 1777812022 | 25.56° C | 36% | 1013.2 hPa | 0 mm | - | 824 W/m² | - |
| 1777811721 | 25.56° C | 38% | 1013.3 hPa | 0 mm | - | 779 W/m² | - |
| 1777811421 | 25° C | 38% | 1013.3 hPa | 0 mm | - | 758 W/m² | - |
| 1777811122 | 25° C | 33% | 1013.3 hPa | 0 mm | - | 796 W/m² | - |
| 1777810821 | 25° C | 36% | 1013.4 hPa | 0 mm | - | 795 W/m² | - |
| 1777810521 | 25° C | 37% | 1013.4 hPa | 0 mm | - | 867 W/m² | - |
* Rain latest hour (hover to see other rain measurements)
** Current wind speed in m/s (hover to see current wind gust speed)